�N����,����,�~����,�C��,���x,�C��,����,���ϕ���,�ő�u�ԕ���,�ő厞����,���˗�,�I�_���x,�n�����x,�ő啗���N��,DTYPE
"21/06/16","00:10",0.2,20.3,94.6,1001.7,289.7,0.7,1.0,263.6,0.00,19.4,130.0,"00:00:08",1
"21/06/16","00:20",0.0,20.4,94.7,1001.9,342.1,1.0,2.1,340.0,0.00,19.6,130.0,"00:13:28",1
"21/06/16","00:30",0.2,20.3,94.7,1001.2,288.6,0.7,1.3,333.5,0.00,19.5,130.0,"00:21:44",1
"21/06/16","00:40",0.0,20.1,94.7,1001.2,314.9,0.8,1.6,346.1,0.00,19.3,130.0,"00:35:36",1
"21/06/16","00:50",0.0,20.1,94.9,1001.2,283.1,0.5,1.0,303.8,0.00,19.3,130.0,"00:45:20",1
"21/06/16","01:00",0.2,20.1,94.9,1001.0,333.5,1.3,2.5,338.9,0.00,19.3,130.0,"00:54:56",1
"21/06/16","01:10",0.0,20.1,94.9,1001.0,293.9,0.7,1.2,318.4,0.00,19.3,130.0,"01:01:20",1
"21/06/16","01:20",0.0,20.0,95.0,1001.0,294.9,0.7,1.9,329.3,0.00,19.2,130.0,"01:17:12",1
"21/06/16","01:30",0.0,20.0,95.1,1000.8,299.5,0.6,1.2,342.7,0.00,19.2,130.0,"01:22:08",1
"21/06/16","01:40",0.0,20.0,95.2,1001.0,328.8,0.7,1.2,340.6,0.00,19.2,130.0,"01:36:08",1
"21/06/16","01:50",0.0,20.1,95.2,1000.8,329.3,0.7,1.1,342.9,0.00,19.3,130.0,"01:45:12",1
"21/06/16","02:00",0.0,20.0,95.2,1001.0,316.4,0.8,1.8,336.5,0.00,19.2,130.0,"01:54:24",1
"21/06/16","02:10",0.0,20.0,95.3,1001.0,309.1,0.6,1.2,345.0,0.00,19.3,130.0,"02:09:52",1
"21/06/16","02:20",0.0,20.0,95.4,1001.2,304.6,0.7,1.4,324.7,0.00,19.3,130.0,"02:19:36",1
"21/06/16","02:30",0.0,19.9,95.4,1001.0,303.5,0.8,1.6,327.0,0.00,19.2,130.0,"02:22:32",1
"21/06/16","02:40",0.0,20.0,95.4,1001.0,304.9,0.8,1.6,330.0,0.00,19.3,130.0,"02:36:32",1
"21/06/16","02:50",0.0,20.0,95.4,1001.0,332.3,0.5,1.0,337.8,0.00,19.3,130.0,"02:44:00",1
"21/06/16","03:00",0.2,20.0,95.4,1001.0,296.3,0.6,1.1,311.2,0.00,19.3,130.0,"02:59:36",1
"21/06/16","03:10",0.0,19.9,95.5,1000.8,323.2,0.8,1.6,333.3,0.00,19.2,130.0,"03:05:28",1
"21/06/16","03:20",0.0,19.9,95.5,1001.0,311.1,0.6,0.9,331.0,0.00,19.2,130.0,"03:10:32",1
"21/06/16","03:30",0.0,19.9,95.6,1000.8,296.0,0.6,1.0,308.7,0.00,19.2,130.0,"03:26:48",1
"21/06/16","03:40",0.0,20.0,95.6,1001.2,295.7,0.7,1.1,311.8,0.00,19.3,130.0,"03:38:32",1
"21/06/16","03:50",0.0,20.0,95.6,1000.8,313.7,0.8,1.2,332.7,0.00,19.3,130.0,"03:47:44",1
"21/06/16","04:00",0.0,19.9,95.7,1000.8,300.9,0.7,1.3,298.1,0.00,19.2,130.0,"03:52:40",1
"21/06/16","04:10",0.0,19.9,95.7,1001.0,322.8,0.7,1.4,336.8,0.00,19.2,130.0,"04:04:48",1
"21/06/16","04:20",0.2,20.0,95.7,1000.8,319.7,1.0,1.4,319.5,0.00,19.3,130.0,"04:17:04",1
"21/06/16","04:30",0.2,20.0,95.8,1000.8,306.7,0.5,1.0,298.6,0.00,19.3,130.0,"04:28:24",1
"21/06/16","04:40",0.0,20.0,95.8,1000.5,315.6,0.5,1.1,311.1,0.00,19.3,130.0,"04:32:24",1
"21/06/16","04:50",0.2,20.0,95.8,1000.8,306.1,0.6,1.3,308.9,0.00,19.3,130.0,"04:46:24",1
"21/06/16","05:00",0.2,20.0,95.8,1000.8,309.5,0.5,0.9,327.2,0.00,19.3,130.0,"04:58:56",1
"21/06/16","05:10",0.4,20.0,95.9,1000.8,323.0,0.6,1.2,340.4,0.00,19.4,130.0,"05:00:32",1
"21/06/16","05:20",0.2,20.2,95.9,1001.0,309.4,0.6,1.1,342.8,0.00,19.6,130.0,"05:10:56",1
"21/06/16","05:30",0.2,20.2,95.9,1000.8,302.4,0.6,0.9,332.1,0.00,19.6,130.0,"05:26:56",1
"21/06/16","05:40",0.2,20.1,96.0,1000.8,267.7,0.2,0.8,240.8,0.00,19.5,130.0,"05:31:12",1
"21/06/16","05:50",0.0,20.2,96.0,1000.8,299.7,0.5,0.8,301.1,0.00,19.6,130.0,"05:42:56",1
"21/06/16","06:00",0.2,20.3,96.0,1001.0,313.6,0.6,1.4,306.1,0.00,19.7,130.0,"05:54:08",1
"21/06/16","06:10",0.0,20.4,96.0,1001.0,327.3,1.0,1.7,341.0,0.00,19.8,130.0,"06:00:48",1
"21/06/16","06:20",0.0,20.5,96.1,1000.8,332.3,0.6,1.1,343.2,0.00,19.9,130.0,"06:15:20",1
"21/06/16","06:30",0.0,20.6,96.0,1000.8,306.2,0.6,0.9,326.1,0.00,20.0,130.0,"06:21:20",1
"21/06/16","06:40",0.0,20.6,96.0,1001.2,321.9,0.6,1.0,309.6,0.00,20.0,130.0,"06:32:16",1
"21/06/16","06:50",0.0,20.6,96.1,1000.8,267.7,0.5,1.2,301.5,0.00,20.0,130.0,"06:42:00",1
"21/06/16","07:00",0.0,20.7,96.1,1001.0,316.8,0.6,1.1,335.2,0.00,20.1,130.0,"06:55:20",1
"21/06/16","07:10",0.0,20.8,96.1,1001.2,330.0,1.0,1.7,341.1,0.01,20.2,130.0,"07:00:02",1
"21/06/16","07:20",0.2,20.9,96.1,1001.5,315.1,1.0,1.8,339.5,0.01,20.3,130.0,"07:14:40",1
"21/06/16","07:30",0.0,20.9,96.1,1001.2,311.6,0.8,2.0,344.6,0.01,20.3,130.0,"07:28:00",1
"21/06/16","07:40",0.2,21.0,96.1,1001.2,300.1,0.7,1.3,298.0,0.02,20.4,130.0,"07:30:16",1
"21/06/16","07:50",0.0,21.2,96.1,1001.2,273.0,0.5,1.1,248.9,0.03,20.6,130.0,"07:48:40",1
"21/06/16","08:00",0.2,21.3,96.1,1001.0,296.1,0.5,0.8,287.6,0.02,20.7,130.0,"07:50:56",1
"21/06/16","08:10",0.0,21.4,96.1,1001.0,329.8,0.7,1.3,342.3,0.04,20.8,130.0,"08:09:04",1
"21/06/16","08:20",0.0,21.4,96.1,1000.8,303.6,0.7,1.3,339.1,0.06,20.8,130.0,"08:10:32",1
"21/06/16","08:30",0.2,21.6,96.1,1001.2,289.5,0.6,1.2,317.0,0.05,21.0,130.0,"08:26:48",1
"21/06/16","08:40",0.0,21.8,96.0,1000.8,284.3,0.5,1.3,323.4,0.05,21.2,130.0,"08:30:24",1
"21/06/16","08:50",0.0,21.9,96.0,1000.8,276.5,0.5,1.3,296.1,0.06,21.3,130.0,"08:48:56",1
"21/06/16","09:00",0.0,21.8,96.0,1001.0,266.7,0.6,1.3,311.0,0.04,21.2,130.0,"08:58:56",1
"21/06/16","09:10",0.0,21.9,96.0,1001.0,308.3,0.6,1.6,332.8,0.04,21.3,130.0,"09:05:52",1
"21/06/16","09:20",0.0,21.9,96.0,1001.0,228.6,0.6,1.3,235.2,0.04,21.3,130.0,"09:16:24",1
"21/06/16","09:30",0.0,22.1,96.0,1001.2,297.7,0.6,1.3,312.7,0.06,21.5,130.0,"09:23:20",1
"21/06/16","09:40",0.2,22.1,96.0,1001.2,324.3,0.6,1.2,338.3,0.04,21.5,130.0,"09:36:32",1
"21/06/16","09:50",0.2,22.0,96.1,1001.0,348.2,0.7,1.6,329.7,0.03,21.4,130.0,"09:41:44",1
"21/06/16","10:00",0.2,21.9,96.0,1001.5,351.2,0.6,1.6,68.4,0.05,21.3,130.0,"09:55:20",1
"21/06/16","10:10",0.2,22.0,96.1,1001.5,340.1,0.7,1.3,354.5,0.06,21.4,130.0,"10:02:40",1
"21/06/16","10:20",0.4,22.0,96.0,1001.5,327.4,0.5,1.3,341.4,0.05,21.4,130.0,"10:17:44",1
"21/06/16","10:30",0.2,21.8,96.0,1001.7,294.6,0.6,1.1,306.5,0.04,21.2,130.0,"10:26:08",1
"21/06/16","10:40",0.4,21.9,96.0,1001.7,273.3,0.5,1.0,309.4,0.04,21.3,130.0,"10:35:20",1
"21/06/16","10:50",0.6,21.8,96.0,1001.7,282.2,0.6,1.2,320.7,0.04,21.2,130.0,"10:48:24",1
"21/06/16","11:00",0.4,21.7,96.1,1001.9,266.1,0.7,1.2,241.6,0.04,21.1,130.0,"10:58:32",1
"21/06/16","11:10",0.8,21.6,96.1,1001.7,274.0,0.6,1.2,249.0,0.03,21.0,130.0,"11:00:40",1
"21/06/16","11:20",0.4,21.5,96.1,1001.9,303.6,0.7,1.3,338.9,0.03,20.9,130.0,"11:18:08",1
"21/06/16","11:30",0.6,21.6,96.1,1001.7,311.4,0.8,1.3,338.8,0.04,21.0,130.0,"11:29:12",1
"21/06/16","11:40",0.4,21.6,96.1,1001.9,320.8,1.1,2.0,334.8,0.05,21.0,130.0,"11:32:08",1
"21/06/16","11:50",0.6,21.6,96.1,1001.0,291.5,0.7,1.2,336.7,0.08,21.0,130.0,"11:45:44",1
"21/06/16","12:00",0.6,21.7,96.2,1001.0,291.8,0.3,1.4,350.6,0.12,21.1,130.0,"11:58:56",1
"21/06/16","12:10",0.6,22.0,96.2,1001.0,268.1,0.6,1.2,231.4,0.15,21.4,130.0,"12:06:08",1
"21/06/16","12:20",0.2,22.2,95.8,1001.0,224.5,0.5,1.1,216.0,0.17,21.5,130.0,"12:18:32",1
"21/06/16","12:30",0.0,22.6,95.9,1000.8,215.2,0.3,1.4,317.9,0.20,22.0,130.0,"12:29:04",1
"21/06/16","12:40",0.2,22.6,95.8,1000.5,46.5,0.6,1.6,33.3,0.19,21.9,130.0,"12:33:20",1
"21/06/16","12:50",0.0,22.5,94.9,1000.3,128.3,0.5,1.4,162.1,0.20,21.7,130.0,"12:49:04",1
"21/06/16","13:00",0.0,23.1,95.6,1000.5,89.3,0.5,1.1,118.5,0.23,22.4,130.0,"12:54:32",1
"21/06/16","13:10",0.0,22.5,94.2,999.8,140.2,0.8,2.4,161.9,0.25,21.6,130.0,"13:07:36",1
"21/06/16","13:20",0.0,22.9,95.2,1000.0,125.2,1.1,3.1,178.2,0.23,22.1,130.0,"13:10:56",1
"21/06/16","13:30",0.0,22.8,94.8,999.6,143.0,0.7,2.1,121.2,0.18,22.0,130.0,"13:21:36",1
"21/06/16","13:40",0.0,23.2,94.6,999.6,102.7,0.5,1.4,119.8,0.18,22.3,130.0,"13:34:32",1
"21/06/16","13:50",0.0,23.4,94.2,999.3,71.9,0.5,1.2,127.2,0.16,22.5,130.0,"13:45:12",1
"21/06/16","14:00",0.0,22.8,93.3,999.1,105.9,0.6,1.6,354.9,0.15,21.7,130.0,"13:57:28",1
"21/06/16","14:10",0.0,23.1,93.3,999.1,92.6,0.6,2.1,151.3,0.12,22.0,130.0,"14:00:56",1
"21/06/16","14:20",0.0,23.2,92.6,998.9,354.5,0.6,1.9,355.6,0.10,22.0,130.0,"14:15:44",1
"21/06/16","14:30",0.0,23.2,92.2,999.1,8.7,0.7,1.9,349.6,0.07,21.9,130.0,"14:20:48",1
"21/06/16","14:40",0.0,23.2,91.6,998.9,24.9,0.6,1.7,347.1,0.08,21.8,130.0,"14:33:12",1
"21/06/16","14:50",0.0,23.1,90.8,999.1,43.3,0.7,1.7,84.0,0.08,21.6,130.0,"14:45:12",1
"21/06/16","15:00",0.0,23.1,90.1,999.1,81.8,0.6,2.1,46.3,0.05,21.4,130.0,"14:53:12",1
"21/06/16","15:10",0.0,22.8,89.3,998.9,35.8,0.8,2.0,13.0,0.06,21.0,130.0,"15:08:56",1
"21/06/16","15:20",0.0,22.8,88.9,999.1,38.0,0.8,1.9,334.4,0.06,20.9,130.0,"15:16:00",1
"21/06/16","15:30",0.0,22.6,88.4,998.9,6.8,1.3,2.7,11.0,0.02,20.6,130.0,"15:24:16",1
"21/06/16","15:40",0.0,22.4,88.0,999.3,356.7,1.2,3.1,5.2,0.01,20.4,130.0,"15:34:48",1
"21/06/16","15:50",0.2,22.3,87.8,999.1,12.1,0.7,2.0,12.1,0.03,20.2,130.0,"15:47:52",1
"21/06/16","16:00",0.0,22.5,87.8,999.6,10.6,0.5,1.2,350.8,0.07,20.4,130.0,"15:50:56",1
"21/06/16","16:10",0.0,22.6,87.5,999.6,353.2,0.8,3.2,333.1,0.07,20.5,130.0,"16:09:20",1
"21/06/16","16:20",0.0,22.7,87.6,999.1,323.4,0.7,1.9,339.7,0.05,20.6,130.0,"16:12:32",1
"21/06/16","16:30",0.0,22.7,87.7,999.3,135.8,0.7,1.9,127.7,0.07,20.6,130.0,"16:23:36",1
"21/06/16","16:40",0.0,22.6,87.7,999.1,139.6,1.0,2.5,154.3,0.07,20.5,130.0,"16:31:28",1
"21/06/16","16:50",0.0,22.7,87.4,999.3,81.2,0.7,2.1,122.7,0.05,20.5,130.0,"16:41:12",1
"21/06/16","17:00",0.0,22.9,87.3,999.3,344.7,0.6,1.4,333.4,0.05,20.7,130.0,"16:58:24",1
"21/06/16","17:10",0.0,22.9,87.1,999.6,351.0,0.6,1.6,347.1,0.04,20.7,130.0,"17:04:32",1
"21/06/16","17:20",0.0,22.7,86.7,999.8,357.9,0.7,2.1,7.9,0.02,20.4,130.0,"17:17:52",1
"21/06/16","17:30",0.0,22.6,86.6,999.1,147.4,0.5,1.3,318.1,0.01,20.3,130.0,"17:20:32",1
"21/06/16","17:40",0.0,22.4,86.4,999.6,86.2,0.6,1.9,73.2,0.04,20.1,130.0,"17:32:32",1
"21/06/16","17:50",0.0,22.5,85.9,999.6,357.2,0.7,2.0,337.2,0.03,20.1,130.0,"17:44:24",1
"21/06/16","18:00",0.0,22.5,85.4,999.3,94.5,0.3,1.4,86.9,0.03,20.0,130.0,"17:54:16",1
"21/06/16","18:10",0.0,22.4,84.8,999.6,21.9,0.5,1.8,123.1,0.01,19.8,130.0,"18:01:44",1
"21/06/16","18:20",0.0,22.7,84.8,999.6,354.1,0.8,2.1,346.3,0.00,20.1,130.0,"18:19:36",1
"21/06/16","18:30",0.0,22.4,85.3,999.8,353.0,1.0,2.5,332.1,0.00,19.9,130.0,"18:20:32",1
"21/06/16","18:40",0.0,22.2,85.8,999.6,350.3,0.6,2.4,331.1,0.01,19.7,130.0,"18:32:08",1
"21/06/16","18:50",0.0,22.1,85.9,999.6,343.6,0.6,1.3,347.9,0.01,19.7,130.0,"18:45:36",1
"21/06/16","19:00",0.0,22.0,85.6,1000.0,346.6,0.7,1.9,339.1,0.01,19.5,130.0,"18:54:56",1
"21/06/16","19:10",0.0,22.1,85.4,999.8,335.6,0.7,1.9,331.9,0.00,19.6,130.0,"19:01:04",1
"21/06/16","19:20",0.0,21.9,85.1,1000.3,359.7,0.7,1.8,10.7,0.00,19.3,130.0,"19:17:52",1
"21/06/16","19:30",0.0,21.8,84.8,1000.3,38.9,0.8,2.9,103.3,0.00,19.2,130.0,"19:25:20",1
"21/06/16","19:40",0.0,21.8,84.6,1000.0,356.8,0.7,2.5,352.6,0.00,19.1,130.0,"19:39:36",1
"21/06/16","19:50",0.0,21.6,84.7,999.8,0.0,0.5,1.4,8.6,0.00,19.0,130.0,"19:43:20",1
"21/06/16","20:00",0.0,21.5,84.8,1000.3,349.6,1.0,2.7,343.7,0.00,18.9,130.0,"19:57:36",1
"21/06/16","20:10",0.0,21.5,84.9,1000.0,348.7,0.8,2.0,333.8,0.00,18.9,130.0,"20:01:36",1
"21/06/16","20:20",0.0,21.4,85.0,1000.3,289.5,0.8,1.4,317.0,0.00,18.8,130.0,"20:11:12",1
"21/06/16","20:30",0.0,21.4,85.3,1000.5,330.2,1.1,1.7,349.6,0.00,18.9,130.0,"20:23:28",1
"21/06/16","20:40",0.0,21.4,85.9,1000.8,331.9,0.8,1.9,313.9,0.00,19.0,130.0,"20:37:28",1
"21/06/16","20:50",0.0,21.1,86.4,1001.0,296.1,0.8,1.3,271.4,0.00,18.8,130.0,"20:41:20",1
"21/06/16","21:00",0.0,21.0,87.0,1001.0,289.8,1.0,1.7,330.6,0.00,18.8,130.0,"20:59:20",1
"21/06/16","21:10",0.0,21.0,87.5,1000.8,282.1,1.1,1.8,315.3,0.00,18.9,130.0,"21:08:56",1
"21/06/16","21:20",0.0,20.9,88.1,1001.0,329.4,1.1,1.8,327.8,0.00,18.9,130.0,"21:14:48",1
"21/06/16","21:30",0.0,20.8,88.6,1000.8,284.3,0.5,1.4,318.6,0.00,18.9,130.0,"21:21:12",1
"21/06/16","21:40",0.0,20.8,88.9,1000.8,312.0,1.3,2.0,323.9,0.00,18.9,130.0,"21:39:12",1
"21/06/16","21:50",0.0,20.8,89.3,1000.8,337.2,1.5,2.6,333.3,0.00,19.0,130.0,"21:47:20",1
"21/06/16","22:00",0.0,20.7,89.6,1001.2,316.7,1.0,1.9,337.6,0.00,19.0,130.0,"21:50:16",1
"21/06/16","22:10",0.0,20.7,90.0,1001.2,337.0,1.3,1.9,339.4,0.00,19.0,130.0,"22:04:48",1
"21/06/16","22:20",0.0,20.5,90.2,1001.5,9.0,1.1,3.4,147.9,0.00,18.9,130.0,"22:19:28",1
"21/06/16","22:30",0.0,20.7,89.9,1001.5,47.2,0.7,1.8,105.9,0.00,19.0,130.0,"22:20:40",1
"21/06/16","22:40",0.0,20.8,89.6,1001.2,67.6,0.7,2.8,149.7,0.00,19.1,130.0,"22:30:40",1
"21/06/16","22:50",0.0,20.8,89.3,1001.5,140.3,0.7,2.0,129.2,0.00,19.0,130.0,"22:49:36",1
"21/06/16","23:00",0.0,20.8,89.2,1001.2,342.2,0.5,1.4,149.9,0.00,19.0,130.0,"22:50:24",1
"21/06/16","23:10",0.0,20.8,89.1,1001.2,337.4,0.6,1.2,312.6,0.00,19.0,130.0,"23:01:04",1
"21/06/16","23:20",0.0,20.9,89.2,1001.0,333.5,1.2,2.2,336.5,0.00,19.1,130.0,"23:17:44",1
"21/06/16","23:30",0.0,20.6,89.2,1001.2,305.5,0.8,1.3,332.0,0.00,18.8,130.0,"23:21:52",1
"21/06/16","23:40",0.0,20.5,89.3,1001.2,282.9,0.7,1.2,250.4,0.00,18.7,130.0,"23:39:20",1
"21/06/16","23:50",0.0,20.4,89.6,1001.2,269.5,1.1,1.7,267.3,0.00,18.7,130.0,"23:42:56",1
"21/06/16","24:00",0.0,20.4,89.8,1001.2,309.6,1.2,1.9,339.9,0.00,18.7,130.0,"23:54:00",1
